User: anonymous
Location: Caltech
(34.1382°N, 118.1253°W)
Time: 15:14:06
(UTC-07:00)
Language:

Iridium 70 - Orbit

View from above orbital plane
View from above orbital plane
View from above satellite
View from above satellite

Ground track
Ground track

The orbit data is extracted from the following two-line orbital elements,

1 25342U 98032A   14242.25121240  .00000196  00000-0  62961-4 0  9307
2 25342 086.3951 291.3544 0002497 109.3423 318.3886 14.34216643852626
Epoch (UTC): 30 August 2014 06:01:44
Eccentricity: 0.0002497
inclination: 86.3951°
perigee height: 776 km
apogee height: 779 km
right ascension of ascending node: 291.3544°
argument of perigee: 109.3423°
revolutions per day: 14.34216643
mean anomaly at epoch: 318.3886°
orbit number at epoch: 85262

The dashed part of the orbit path shows where the satellite is in the earth's shadow,  

DLR